Location: Central Coast
(33.3208°S, 151.2336°E)
Time: 01:58:45
(UTC+10:00)

OTV 5 (USA 277) - Visible Passes

Search period start: 20 June 2018 00:00
Search period end: 30 June 2018 00:00
Orbit: 313 x 320 km, 54.5° (Epoch: 18 June)

Date Brightness Start Highest point End Pass type
(mag) Time Alt. Az. Time Alt. Az. Time Alt. Az.
20 Jun ? 06:15:00 10° N 06:17:12 22° NE 06:19:25 10° ESE visible
21 Jun ? 06:28:46 10° NW 06:31:31 85° NE 06:34:19 10° SE visible
22 Jun ? 05:10:46 10° NNE 05:11:57 12° ENE 05:13:08 10° E visible
23 Jun ? 05:24:48 22° N 05:26:12 40° NE 05:28:50 10° ESE visible
24 Jun ? 05:40:43 48° SW 05:40:43 48° SW 05:43:20 10° SSE visible
25 Jun ? 05:55:59 15° SSW 05:55:59 15° SSW 05:57:07 10° S visible
